OE-11361 Weather Reports


time (UTC)temp
C
wind
direction
speed
KPH
gust
KPH
rain 1hr
cm
rain 24hr
cm
rain mn
cm
humidity
%
barometer
mb
20260903084116 20 39 1.6 4.8 0.00 0.00 0.00 66 1021.6
20260903083504 20 211 0.0 4.8 0.00 0.00 0.00 68 1021.8
20260903082504 19 245 1.6 4.8 0.00 0.00 0.00 68 1021.9
20260903081117 18 311 1.6 4.8 0.00 0.00 0.00 70 1022.0
20260903080504 18 87 1.6 3.2 0.00 0.00 0.00 71 1022.1
20260903075504 18 331 1.6 4.8 0.00 0.00 0.00 75 1022.1
20260903074117 17 52 1.6 3.2 0.00 0.00 0.00 77 1022.2
20260903073503 17 109 1.6 4.8 0.00 0.00 0.00 78 1022.3
20260903072503 16 84 0.0 3.2 0.00 0.00 0.00 83 1022.4
20260903071117 16 19 1.6 3.2 0.00 0.00 0.00 84 1022.5
20260903070504 16 174 1.6 3.2 0.00 0.00 0.00 84 1022.6
20260903065504 16 116 1.6 3.2 0.00 0.00 0.00 84 1022.6
20260903064116 16 89 1.6 3.2 0.00 0.00 0.00 85 1022.7
20260903063503 15 317 1.6 3.2 0.00 0.00 0.00 86 1022.7
20260903062504 15 273 0.0 3.2 0.00 0.00 0.00 86 1022.6
20260903061117 15 360 0.0 1.6 0.00 0.00 0.00 86 1022.7
20260903060504 15 151 0.0 3.2 0.00 0.00 0.00 86 1022.7
20260903055503 15 144 1.6 3.2 0.00 0.00 0.00 87 1022.7
20260903054116 15 63 1.6 3.2 0.00 0.00 0.00 87 1022.6
20260903053504 15 360 0.0 3.2 0.00 0.00 0.00 88 1022.6
20260903052504 15 360 0.0 3.2 0.00 0.00 0.00 89 1022.6
20260903051117 15 77 1.6 3.2 0.00 0.00 0.00 87 1022.6
20260903050503 14 33 1.6 4.8 0.00 0.00 0.00 88 1022.6
20260903045504 14 360 0.0 6.4 0.00 0.00 0.00 89 1022.6
20260903044116 14 134 1.6 8.0 0.00 0.00 0.00 88 1022.4
20260903043503 14 145 1.6 4.8 0.00 0.00 0.00 89 1022.5
20260903042504 14 102 1.6 3.2 0.00 0.00 0.00 88 1022.3
20260903041116 14 145 1.6 4.8 0.00 0.00 0.00 87 1022.3
20260903040504 14 142 1.6 4.8 0.00 0.00 0.00 87 1022.3
20260903035504 14 104 1.6 4.8 0.00 0.00 0.00 87 1022.4
20260903034503 14 41 0.0 3.2 0.00 0.00 0.00 87 1022.3
20260903033503 14 269 0.0 1.6 0.00 0.00 0.00 88 1022.3
20260903032504 14 104 3.2 4.8 0.00 0.00 0.00 87 1022.2
20260903031117 14 188 0.0 3.2 0.00 0.00 0.00 87 1022.2
20260903030504 15 23 1.6 3.2 0.00 0.00 0.00 85 1021.9
20260903025504 15 360 0.0 3.2 0.00 0.00 0.00 87 1021.9
20260903024504 15 146 1.6 4.8 0.00 0.00 0.00 85 1021.8
20260903023504 15 141 1.6 4.8 0.00 0.00 0.00 84 1021.8
20260903022504 15 97 0.0 6.4 0.00 0.00 0.00 83 1021.6
20260903021116 15 305 4.8 9.7 0.00 0.00 0.00 84 1021.5
20260903020504 15 113 3.2 8.0 0.00 0.00 0.00 84 1021.5
20260903015504 15 92 4.8 8.0 0.00 0.00 0.00 83 1021.5
20260903014116 15 148 1.6 6.4 0.00 0.00 0.00 85 1021.8
20260903013503 15 336 1.6 4.8 0.00 0.00 0.00 86 1021.8
20260903012503 15 92 1.6 6.4 0.00 0.00 0.00 84 1021.6
20260903011117 15 309 3.2 6.4 0.00 0.00 0.00 84 1021.6
20260903010504 15 121 0.0 3.2 0.00 0.00 0.00 85 1021.7
20260903005504 15 298 3.2 6.4 0.00 0.00 0.00 84 1021.8
20260903004117 15 274 1.6 4.8 0.00 0.00 0.00 85 1021.7
20260903003504 15 166 1.6 9.7 0.00 0.00 0.00 83 1021.7
20260903002504 15 110 3.2 9.7 0.00 0.00 0.00 82 1021.8
20260903001516 14 104 1.6 3.2 0.00 0.00 0.00 85 1022.0
20260903000503 14 9 1.6 3.2 0.00 0.00 0.00 86 1022.0
20260902235503 14 324 3.2 4.8 0.00 0.00 0.00 86 1022.3
20260902234117 14 360 0.0 3.2 0.00 0.00 0.00 86 1022.3
20260902233503 14 110 0.0 1.6 0.00 0.00 0.00 86 1022.2
20260902232503 14 121 1.6 3.2 0.00 0.00 0.00 86 1022.2
20260902231504 15 47 1.6 3.2 0.00 0.00 0.00 85 1022.2
20260902230503 15 154 1.6 6.4 0.00 0.00 0.00 84 1022.1
20260902225504 15 120 1.6 6.4 0.00 0.00 0.00 84 1021.6
20260902224117 15 145 3.2 9.7 0.00 0.00 0.00 83 1021.6
20260902223504 15 107 1.6 3.2 0.00 0.00 0.00 85 1021.5
20260902222504 15 34 1.6 4.8 0.00 0.00 0.00 84 1021.5
20260902221117 15 360 0.0 3.2 0.00 0.00 0.00 84 1021.4
20260902220503 15 116 1.6 4.8 0.00 0.00 0.00 83 1021.3
20260902215503 16 97 1.6 4.8 0.00 0.00 0.00 81 1021.3
20260902214117 16 89 1.6 4.8 0.00 0.00 0.00 80 1021.1
20260902213503 16 87 1.6 3.2 0.00 0.00 0.00 80 1021.1
20260902211117 16 129 1.6 3.2 0.00 0.00 0.00 80 1020.9
20260902210504 16 120 0.0 3.2 0.00 0.00 0.00 80 1020.8
20260902205504 17 109 1.6 4.8 0.00 0.00 0.00 76 1020.8
20260902204118 17 357 1.6 4.8 0.00 0.00 0.00 77 1020.7
20260902203503 17 151 0.0 3.2 0.00 0.00 0.00 77 1020.5
20260902202504 17 175 0.0 4.8 0.00 0.00 0.00 77 1020.6
20260902201117 17 105 1.6 3.2 0.00 0.00 0.00 77 1020.6
20260902200504 17 332 1.6 3.2 0.00 0.00 0.00 76 1020.7
20260902195504 17 92 0.0 3.2 0.00 0.00 0.00 76 1020.6
20260902194117 17 328 1.6 4.8 0.00 0.00 0.00 74 1020.6
20260902193504 17 118 1.6 3.2 0.00 0.00 0.00 76 1020.6
20260902192503 17 139 1.6 3.2 0.00 0.00 0.00 75 1020.6
20260902191117 18 132 3.2 6.4 0.00 0.00 0.00 76 1020.4
20260902190503 18 43 1.6 3.2 0.00 0.00 0.00 72 1020.2
20260902185504 18 95 1.6 4.8 0.00 0.00 0.00 73 1020.0
20260902184117 18 111 3.2 8.0 0.00 0.00 0.00 73 1019.8
20260902183504 18 112 3.2 4.8 0.00 0.00 0.00 74 1019.7
20260902182504 18 125 3.2 4.8 0.00 0.00 0.00 72 1019.6
20260902181117 19 128 3.2 4.8 0.00 0.00 0.00 74 1019.2
20260902180504 20 113 1.6 3.2 0.00 0.00 0.00 69 1019.2
20260902175504 20 137 1.6 6.4 0.00 0.00 0.00 67 1018.8
20260902174117 21 126 1.6 6.4 0.00 0.00 0.00 64 1018.6
20260902173503 21 278 3.2 9.7 0.00 0.00 0.00 58 1018.2
20260902172504 22 287 1.6 9.7 0.00 0.00 0.00 53 1017.9
20260902171117 23 277 1.6 9.7 0.00 0.00 0.00 48 1017.8
20260902170504 23 326 4.8 14.5 0.00 0.00 0.00 47 1017.7
20260902165504 23 296 3.2 11.3 0.00 0.00 0.00 45 1017.7
20260902164117 24 13 6.4 16.1 0.00 0.00 0.00 45 1017.6
20260902163504 24 340 8.0 14.5 0.00 0.00 0.00 45 1017.5
20260902162504 24 321 8.0 20.9 0.00 0.00 0.00 46 1017.3
20260902161117 25 357 4.8 19.3 0.00 0.00 0.00 45 1017.2
20260902160503 25 338 6.4 12.9 0.00 0.00 0.00 44 1017.1
20260902155504 25 336 8.0 17.7 0.00 0.00 0.00 47 1017.1
20260902154117 25 330 8.0 17.7 0.00 0.00 0.00 44 1017.1
20260902153504 25 331 8.0 19.3 0.00 0.00 0.00 44 1017.2
20260902152503 25 335 8.0 19.3 0.00 0.00 0.00 46 1017.2
20260902151117 25 356 6.4 16.1 0.00 0.00 0.00 45 1017.4
20260902150504 25 319 12.9 22.5 0.00 0.00 0.00 46 1017.4
20260902145504 25 312 8.0 20.9 0.00 0.00 0.00 45 1017.4
20260902144117 25 296 6.4 17.7 0.00 0.00 0.00 44 1017.3
20260902143504 25 327 12.9 24.1 0.00 0.00 0.00 45 1017.4
20260902142504 25 317 9.7 25.7 0.00 0.00 0.00 44 1017.4
20260902141117 25 333 8.0 20.9 0.00 0.00 0.00 44 1017.5
20260902140504 25 335 4.8 22.5 0.00 0.00 0.00 46 1017.5
20260902135504 25 309 6.4 16.1 0.00 0.00 0.00 44 1017.4
20260902134116 25 329 8.0 14.5 0.00 0.00 0.00 47 1017.4
20260902133504 25 302 4.8 14.5 0.00 0.00 0.00 45 1017.5
20260902132504 25 83 1.6 16.1 0.00 0.00 0.00 45 1017.5
20260902131117 25 11 6.4 17.7 0.00 0.00 0.00 43 1017.7
20260902130504 25 311 9.7 20.9 0.00 0.00 0.00 43 1018.0
20260902125504 25 297 8.0 17.7 0.00 0.00 0.00 43 1017.9
20260902124116 25 333 3.2 20.9 0.00 0.00 0.00 42 1017.9
20260902123504 25 344 4.8 16.1 0.00 0.00 0.00 42 1018.0
20260902122504 25 313 6.4 17.7 0.00 0.00 0.00 39 1017.9
20260902121117 25 316 8.0 19.3 0.00 0.00 0.00 40 1018.1
20260902120503 25 359 3.2 14.5 0.00 0.00 0.00 42 1018.0
20260902115503 25 340 6.4 16.1 0.00 0.00 0.00 41 1018.1
20260902114117 25 323 6.4 17.7 0.00 0.00 0.00 42 1018.2
20260902113504 25 331 8.0 20.9 0.00 0.00 0.00 44 1018.3
20260902112504 24 326 9.7 25.7 0.00 0.00 0.00 44 1018.4
20260902111117 24 324 9.7 20.9 0.00 0.00 0.00 44 1018.5
20260902110504 24 314 6.4 17.7 0.00 0.00 0.00 48 1018.6
20260902105504 24 330 8.0 16.1 0.00 0.00 0.00 46 1018.8
20260902104117 24 302 6.4 16.1 0.00 0.00 0.00 48 1018.8
20260902103504 23 305 6.4 12.9 0.00 0.00 0.00 47 1018.9
20260902102503 23 288 6.4 11.3 0.00 0.00 0.00 44 1019.2
20260902101117 23 297 6.4 12.9 0.00 0.00 0.00 46 1019.3
20260902100504 23 283 3.2 8.0 0.00 0.00 0.00 48 1019.5
20260902095504 23 312 3.2 11.3 0.00 0.00 0.00 52 1019.6
20260902094117 22 323 6.4 9.7 0.00 0.00 0.00 54 1019.8
20260902093504 22 299 4.8 9.7 0.00 0.00 0.00 52 1020.0
20260902092503 22 344 3.2 9.7 0.00 0.00 0.00 53 1020.0
20260902091116 22 278 1.6 8.0 0.00 0.00 0.00 55 1020.1
20260902090504 22 343 1.6 8.0 0.00 0.00 0.00 58 1020.1